Location: Juzet
(42.9779°N, 0.7597°E)
Time: 17:46:21
(UTC+00:00)

CZ-2D R/B - Pass Details

Date: 14 July 2020
Orbit: 792 x 844 km, 98.7° (Epoch: 13 August)

Event Time Altitude Azimuth Distance (km) Brightness Sun altitude
Rises 02:20:30 0° 6° (N) 3,348 6.4 -18.1°
Reaches altitude 10° 02:22:57 10° 360° (N) 2,420 5.4 -17.8°
Maximum altitude 02:27:55 41° 292° (WNW) 1,193 2.9 -17.3°
Enters shadow 02:30:28 25° 240° (WSW) 1,610 3.1 -17.0°
